Home   Weather   Kinshasa   Past weeks

Flag for Congo Dem. Rep. Past Weather in Kinshasa, Congo Dem. Rep. — Yesterday and Last 2 Weeks

Now
75 °F

Passing clouds.


Feels Like: 75 °F
Forecast: 73 / 94 °F
Wind: 2 mph from West

Location: Brazzaville / Maya-Maya

Current Time: Apr 29, 2017 at 8:43:44 am

Latest Report: Apr 29, 2017 at 7:00 am


Visibility: N/A

Pressure: 29.98 "Hg

Humidity: 89%

Dew Point: 72 °F

Location of KinshasaLocation

Past Weather in Kinshasa — Graph

°F

Kinshasa Temperature Yesterday

Maximum temperature yesterday: 91 °F (at 2:00 pm)
Minimum temperature yesterday: 75 °F (at 4:00 am)
Average temperature yesterday: 80 °F

High & Low Weather Summary for the Past Weeks

 TemperatureHumidityPressure
High95 °F (Apr 15, 4:00 pm)100% (Apr 23, 8:00 pm)30.04 "Hg (Apr 23, 8:00 pm)
Low72 °F (Apr 23, 8:00 pm)41% (Apr 18, 4:00 pm)29.71 "Hg (Apr 18, 4:00 pm)
Average80 °F77%29.88 "Hg
* Reported Apr 14 7:00 am — Apr 29 7:00 am, Kinshasa, Weather by CustomWeather, © 2017

Note: Actual official high and low records may vary slightly from our data, if they occured in-between our weather recording intervals... More about our weather records

Advertising

Kinshasa Weather History for the Previous 24 Hours

Scroll right to see more
 ConditionsComfort  
Time TempWeatherWind HumidityBarometerVisibility
7:00 am
Sat, Apr 29
75 °FPassing clouds.2 mph89%29.98 "HgN/A
6:00 am72 °FPassing clouds.2 mph94%29.95 "HgN/A
5:00 am72 °FPassing clouds.No wind94%29.95 "HgN/A
4:00 am73 °FPassing clouds.3 mph89%29.95 "HgN/A
3:00 am73 °FPassing clouds.3 mph89%29.92 "HgN/A
2:00 am73 °FClear.3 mph89%29.95 "Hg6 mi
1:00 am73 °FClear.3 mph89%29.95 "Hg6 mi
12:00 am73 °FClear.3 mph94%29.95 "Hg6 mi
11:00 pm
Fri, Apr 28
75 °FPassing clouds.6 mph89%29.98 "Hg6 mi
10:00 pm77 °FPassing clouds.2 mph83%29.98 "Hg6 mi
9:00 pm77 °FLight rain. Clear.5 mph83%29.95 "Hg6 mi
8:00 pm79 °FPassing clouds.3 mph79%29.92 "Hg6 mi
7:00 pm79 °FPassing clouds.3 mph79%29.89 "Hg6 mi
6:20 pm79 °FPassing clouds.2 mph79%29.86 "Hg6 mi
5:00 pm81 °FThunderstorms. Scattered clouds.8 mph74%29.83 "Hg6 mi
4:00 pm81 °FThunderstorms. Scattered clouds.6 mph66%29.86 "Hg6 mi
3:16 pm82 °FThunderstorms. Scattered clouds.9 mph62%29.83 "Hg6 mi
2:58 pm86 °FScattered clouds.16 mph59%29.83 "HgN/A
2:00 pm91 °FScattered clouds.3 mph52%29.83 "HgN/A
1:00 pm90 °FScattered clouds.3 mph55%29.89 "HgN/A
12:00 pm88 °FScattered clouds.3 mph62%29.92 "HgN/A
11:00 am88 °FPassing clouds.2 mph62%29.95 "HgN/A
10:00 am84 °FPassing clouds.2 mph66%29.98 "HgN/A
9:00 am79 °FPassing clouds.3 mph79%29.98 "HgN/A
8:00 am79 °FPassing clouds.3 mph79%29.95 "HgN/A
Weather by CustomWeather, © 2017

See weather overviewHow to use our weather pages